STARLINK-35136

Last updated on Tue Oct 07 2025 00:02:06 GMT+0000 (Coordinated Universal Time)

1 65537U 25200T 25279.50003471 -.01523288 00000+0 -35440-1 0 9997 2 65537 97.6037 346.2151 0001517 71.9962 35.3854 15.45296283 5817

Satellite not in orbit

STARLINK-35136